カタログに戻る

STARLINK-35026

運用中通信VLEO
NORAD 65514·PAYLOAD·🇺🇸 United States

打ち上げ Sep 5, 2025 から Cape Canaveral Space Force Station

Loading…

次のパス (今後24時間)

TLE

最新Source: CelesTrak SupGP

元期: Sep 15, 2026, 02:51 UTC

1 65514C 25198Y   26258.11923611  .00017427  00000+0  51497-3 0  2580
2 65514  53.1562 108.5636 0001241  87.3610  89.2311 15.34376042    17

AllMySatでSTARLINK-35026をリアルタイム追跡

Download on the App Store